Location: ??????
(42.0089°N, 44.3281°E)
Time: 05:06:11
(UTC+00:00)

EXPRESS MD2 - Visible Passes

Search period start: 21 May 2022 00:00
Search period end: 31 May 2022 00:00
Orbit: 262 x 3833 km, 49.9° (Epoch: 20 May)

Date Brightness Start Highest point End Pass type
(mag) Time Alt. Az. Time Alt. Az. Time Alt. Az.
21 May 4.7 17:47:20 10° WNW 17:53:01 40° N 17:55:47 13° ENE visible
21 May 5.8 20:03:42 10° WNW 20:04:03 12° W 20:04:03 12° W visible
22 May 5.0 17:16:17 10° WNW 17:22:39 39° N 17:26:06 10° ENE visible
22 May 4.9 19:32:55 10° WNW 19:34:57 22° W 19:34:57 22° W visible
23 May 3.6 19:02:05 10° WNW 19:05:46 46° W 19:05:46 46° W visible
24 May 2.8 18:31:08 10° WNW 18:36:06 76° SW 18:36:31 63° SSE visible
25 May 3.3 18:00:02 10° WNW 18:05:41 83° NNE 18:07:12 31° ESE visible
26 May 3.8 17:28:47 10° WNW 17:35:07 69° NNE 17:37:48 16° ESE visible
27 May 4.2 16:57:19 10° WNW 17:04:24 60° NNE 17:07:58 10° ESE visible
27 May 5.4 19:15:00 10° W 19:16:34 13° WSW 19:16:34 13° WSW visible
28 May 4.7 18:43:08 10° WNW 18:46:37 21° SW 18:47:02 20° SW visible
29 May 4.3 18:11:27 10° WNW 18:16:07 31° SW 18:17:26 23° S visible
30 May 4.2 17:39:45 10° WNW 17:45:27 44° SW 17:47:45 18° SSE visible
